This is the latest recevied weather packets stored in our database for station/object EA4NI-10. If no packets are shown the sender has not sent any weather packets the latest 10 day(s).
| Time | Temp. | Humidity | Pressure | Rain* | Wind** | Luminosity | Snow |
|---|---|---|---|---|---|---|---|
| 1777585325 | 24.44° C | 57% | 1020.4 hPa | - | - | - | - |
| 1777584425 | 24.44° C | 55% | 1020.4 hPa | - | - | - | - |
| 1777583525 | 23.89° C | 54% | 1020.4 hPa | - | - | - | - |
| 1777582624 | 23.89° C | 55% | 1020.2 hPa | - | - | - | - |
| 1777581724 | 24.44° C | 55% | 1020.1 hPa | - | - | - | - |
| 1777580824 | 24.44° C | 55% | 1020 hPa | - | - | - | - |
| 1777579924 | 24.44° C | 55% | 1019.8 hPa | - | - | - | - |
| 1777579024 | 24.44° C | 52% | 1019.7 hPa | - | - | - | - |
| 1777578124 | 24.44° C | 53% | 1019.4 hPa | - | - | - | - |
| 1777577223 | 24.44° C | 53% | 1019.3 hPa | - | - | - | - |
| 1777576323 | 24.44° C | 52% | 1019.1 hPa | - | - | - | - |
| 1777575422 | 24.44° C | 51% | 1019.1 hPa | - | - | - | - |
| 1777574522 | 24.44° C | 51% | 1018.9 hPa | - | - | - | - |
| 1777573622 | 24.44° C | 53% | 1018.7 hPa | - | - | - | - |
| 1777572722 | 24.44° C | 53% | 1018.7 hPa | - | - | - | - |
| 1777572268 | 24.44° C | 46% | 1018.7 hPa | - | - | - | - |
| 1777571822 | 24.44° C | 46% | 1018.7 hPa | - | - | - | - |
| 1777571076 | 24.44° C | 45% | 1018.8 hPa | - | - | - | - |
| 1777570922 | 24.44° C | 45% | 1018.8 hPa | - | - | - | - |
| 1777570021 | 24.44° C | 44% | 1018.8 hPa | - | - | - | - |
| 1777569121 | 24.44° C | 44% | 1018.8 hPa | - | - | - | - |
| 1777568221 | 24.44° C | 45% | 1018.8 hPa | - | - | - | - |
| 1777567321 | 24.44° C | 44% | 1018.9 hPa | - | - | - | - |
| 1777566453 | 24.44° C | 44% | 1018.9 hPa | - | - | - | - |
| 1777566421 | 24.44° C | 44% | 1018.9 hPa | - | - | - | - |
* Rain since midnight (hover to see other rain measurements)
** Current wind speed in m/s (hover to see current wind gust speed)